Time,TemperatureF,DewpointF,PressureIn,WindDirection,WindDirectionDegrees,WindSpeedMPH,WindSpeedGustMPH,Humidity,HourlyPrecipIn,Conditions,Clouds,dailyrainin,SoftwareType,DateUTC
2013-01-15 00:05:00,36.8,29.0,30.17,WNW,296,0.0,0.0,74,0.00,,,0.00,vanprod,2013-01-15 05:05:00,
2013-01-15 00:15:00,36.6,29.0,30.18,WNW,296,0.0,0.0,75,0.00,,,0.00,vanprod,2013-01-15 05:15:00,
2013-01-15 00:25:00,36.3,30.0,30.18,WNW,296,0.0,0.0,76,0.00,,,0.00,vanprod,2013-01-15 05:25:00,
2013-01-15 00:35:00,36.3,28.0,30.18,WNW,298,0.0,0.0,71,0.00,,,0.00,vanprod,2013-01-15 05:35:00,
2013-01-15 00:45:00,36.3,30.0,30.18,WNW,298,0.0,0.0,77,0.00,,,0.00,vanprod,2013-01-15 05:45:00,
2013-01-15 00:55:00,36.3,29.0,30.18,WNW,298,0.0,0.0,75,0.00,,,0.00,vanprod,2013-01-15 05:55:00,
2013-01-15 01:05:00,36.3,30.0,30.18,WNW,296,0.0,0.0,77,0.00,,,0.00,vanprod,2013-01-15 06:05:00,
2013-01-15 01:15:00,36.2,30.0,30.19,WNW,296,0.0,0.0,78,0.00,,,0.00,vanprod,2013-01-15 06:15:00,
2013-01-15 01:25:00,36.0,30.0,30.19,WNW,298,0.0,0.0,78,0.00,,,0.00,vanprod,2013-01-15 06:25:00,
2013-01-15 01:35:00,35.9,30.0,30.20,WNW,296,0.0,0.0,79,0.00,,,0.00,vanprod,2013-01-15 06:35:00,
2013-01-15 01:45:00,35.8,28.0,30.18,North,1,0.0,2.0,74,0.00,,,0.00,vanprod,2013-01-15 06:45:00,
2013-01-15 01:55:00,35.9,29.0,30.18,NNE,13,0.0,0.0,77,0.00,,,0.00,vanprod,2013-01-15 06:55:00,
2013-01-15 02:05:00,35.9,29.0,30.20,NW,322,0.0,0.0,77,0.00,,,0.00,vanprod,2013-01-15 07:05:00,
2013-01-15 02:15:00,35.9,29.0,30.18,NW,320,255.0,0.0,77,0.00,,,0.00,vanprod,2013-01-15 07:15:00,
2013-01-15 02:25:00,35.5,29.0,30.18,NW,322,0.0,0.0,78,0.00,,,0.00,vanprod,2013-01-15 07:25:00,
2013-01-15 02:35:00,35.3,29.0,30.18,NW,322,0.0,0.0,78,0.00,,,0.00,vanprod,2013-01-15 07:35:00,
2013-01-15 02:45:00,35.2,30.0,30.17,NW,320,0.0,0.0,80,0.00,,,0.00,vanprod,2013-01-15 07:45:00,
2013-01-15 02:55:00,34.9,28.0,30.17,NW,322,0.0,0.0,77,0.00,,,0.00,vanprod,2013-01-15 07:55:00,
2013-01-15 03:05:00,34.9,29.0,30.18,NW,322,0.0,0.0,79,0.00,,,0.00,vanprod,2013-01-15 08:05:00,
2013-01-15 03:15:00,34.7,29.0,30.18,NW,322,0.0,0.0,80,0.00,,,0.00,vanprod,2013-01-15 08:15:00,
2013-01-15 03:25:00,34.6,30.0,30.18,NW,322,0.0,0.0,82,0.00,,,0.00,vanprod,2013-01-15 08:25:00,
2013-01-15 03:35:00,34.1,29.0,30.15,NW,322,0.0,0.0,82,0.00,,,0.00,vanprod,2013-01-15 08:35:00,
2013-01-15 03:45:00,34.1,29.0,30.18,NW,320,0.0,0.0,81,0.00,,,0.00,vanprod,2013-01-15 08:45:00,
2013-01-15 03:55:00,34.1,29.0,30.18,NW,322,0.0,0.0,82,0.00,,,0.00,vanprod,2013-01-15 08:55:00,
2013-01-15 04:05:00,34.1,30.0,30.16,NW,322,0.0,0.0,84,0.00,,,0.00,vanprod,2013-01-15 09:05:00,
2013-01-15 04:15:00,34.1,29.0,30.16,NW,322,0.0,0.0,83,0.00,,,0.00,vanprod,2013-01-15 09:15:00,
2013-01-15 04:25:00,34.1,30.0,30.16,NW,320,0.0,0.0,84,0.00,,,0.00,vanprod,2013-01-15 09:25:00,
2013-01-15 04:35:00,33.8,29.0,30.16,NW,322,0.0,0.0,83,0.00,,,0.00,vanprod,2013-01-15 09:35:00,
2013-01-15 04:45:00,33.7,28.0,30.15,NW,322,0.0,0.0,81,0.00,,,0.00,vanprod,2013-01-15 09:45:00,
2013-01-15 04:55:00,33.4,27.0,30.15,NW,320,0.0,0.0,78,0.00,,,0.00,vanprod,2013-01-15 09:55:00,
2013-01-15 05:05:00,33.2,27.0,30.16,NW,319,0.0,0.0,78,0.00,,,0.00,vanprod,2013-01-15 10:05:00,
2013-01-15 05:15:00,33.1,27.0,30.16,NW,322,0.0,0.0,77,0.00,,,0.00,vanprod,2013-01-15 10:15:00,
2013-01-15 05:25:00,32.7,26.0,30.16,NW,320,0.0,0.0,77,0.00,,,0.00,vanprod,2013-01-15 10:25:00,
2013-01-15 05:35:00,32.4,27.0,30.17,NW,320,0.0,0.0,79,0.00,,,0.00,vanprod,2013-01-15 10:35:00,
2013-01-15 05:45:00,31.9,26.0,30.17,NW,322,0.0,0.0,78,0.00,,,0.00,vanprod,2013-01-15 10:45:00,
2013-01-15 05:55:00,31.8,26.0,30.17,NW,322,0.0,0.0,79,0.00,,,0.00,vanprod,2013-01-15 10:55:00,
2013-01-15 06:05:00,31.3,27.0,30.16,NW,322,0.0,0.0,83,0.00,,,0.00,vanprod,2013-01-15 11:05:00,
2013-01-15 06:15:00,30.9,26.0,30.17,NW,320,0.0,0.0,83,0.00,,,0.00,vanprod,2013-01-15 11:15:00,
2013-01-15 06:25:00,30.6,26.0,30.17,NW,320,0.0,0.0,84,0.00,,,0.00,vanprod,2013-01-15 11:25:00,
2013-01-15 06:35:00,30.1,26.0,30.19,NW,322,0.0,0.0,84,0.00,,,0.00,vanprod,2013-01-15 11:35:00,
2013-01-15 06:45:00,29.7,25.0,30.20,NW,320,0.0,0.0,84,0.00,,,0.00,vanprod,2013-01-15 11:45:00,
2013-01-15 06:55:00,29.4,25.0,30.20,NW,320,0.0,0.0,85,0.00,,,0.00,vanprod,2013-01-15 11:55:00,
2013-01-15 07:05:00,29.4,26.0,30.21,NW,320,0.0,0.0,87,0.00,,,0.00,vanprod,2013-01-15 12:05:00,
2013-01-15 07:15:00,29.1,26.0,30.21,NW,320,0.0,0.0,87,0.00,,,0.00,vanprod,2013-01-15 12:15:00,
2013-01-15 07:25:00,29.1,26.0,30.21,NW,322,0.0,0.0,87,0.00,,,0.00,vanprod,2013-01-15 12:25:00,
2013-01-15 07:35:00,29.1,26.0,30.22,NW,322,0.0,0.0,88,0.00,,,0.00,vanprod,2013-01-15 12:35:00,
2013-01-15 07:45:00,29.0,26.0,30.22,NW,320,0.0,0.0,87,0.00,,,0.00,vanprod,2013-01-15 12:45:00,
2013-01-15 07:55:00,29.1,26.0,30.22,NW,322,0.0,0.0,88,0.00,,,0.00,vanprod,2013-01-15 12:55:00,
2013-01-15 08:05:00,29.1,26.0,30.23,NW,320,0.0,0.0,88,0.00,,,0.00,vanprod,2013-01-15 13:05:00,
2013-01-15 08:15:00,29.1,26.0,30.24,NW,322,0.0,0.0,88,0.00,,,0.00,vanprod,2013-01-15 13:15:00,
2013-01-15 08:25:00,29.1,26.0,30.24,NW,322,0.0,0.0,87,0.00,,,0.00,vanprod,2013-01-15 13:25:00,
2013-01-15 08:35:00,29.1,26.0,30.24,NW,322,0.0,0.0,87,0.00,,,0.00,vanprod,2013-01-15 13:35:00,
2013-01-15 08:45:00,29.3,26.0,30.24,NW,322,0.0,0.0,88,0.00,,,0.00,vanprod,2013-01-15 13:45:00,
2013-01-15 08:55:00,29.4,26.0,30.24,NW,320,0.0,0.0,88,0.00,,,0.00,vanprod,2013-01-15 13:55:00,
2013-01-15 09:05:00,29.5,26.0,30.24,NW,322,0.0,0.0,88,0.00,,,0.00,vanprod,2013-01-15 14:05:00,
2013-01-15 09:15:00,29.8,27.0,30.24,NW,322,0.0,0.0,88,0.00,,,0.00,vanprod,2013-01-15 14:15:00,
2013-01-15 09:25:00,30.1,27.0,30.24,NW,320,0.0,0.0,88,0.00,,,0.00,vanprod,2013-01-15 14:25:00,
2013-01-15 09:35:00,30.4,27.0,30.23,NW,322,0.0,0.0,88,0.00,,,0.00,vanprod,2013-01-15 14:35:00,
2013-01-15 09:45:00,31.2,28.0,30.24,NW,322,0.0,0.0,88,0.00,,,0.00,vanprod,2013-01-15 14:45:00,
2013-01-15 09:55:00,32.1,29.0,30.24,NW,323,0.0,0.0,88,0.00,,,0.00,vanprod,2013-01-15 14:55:00,
2013-01-15 10:05:00,32.7,29.0,30.24,NW,322,0.0,0.0,87,0.00,,,0.00,vanprod,2013-01-15 15:05:00,
2013-01-15 10:15:00,33.5,29.0,30.25,NW,322,0.0,0.0,84,0.00,,,0.00,vanprod,2013-01-15 15:15:00,
2013-01-15 10:25:00,34.7,27.0,30.25,NW,322,1.0,0.0,74,0.00,,,0.00,vanprod,2013-01-15 15:25:00,
2013-01-15 10:35:00,35.9,27.0,30.24,NW,322,1.0,2.0,71,0.00,,,0.00,vanprod,2013-01-15 15:35:00,
2013-01-15 10:45:00,36.9,28.0,30.24,NW,319,0.0,0.0,70,0.00,,,0.00,vanprod,2013-01-15 15:45:00,
2013-01-15 10:55:00,37.5,26.0,30.24,NW,322,0.0,0.0,64,0.00,,,0.00,vanprod,2013-01-15 15:55:00,
2013-01-15 11:05:00,38.0,26.0,30.23,NW,323,0.0,0.0,62,0.00,,,0.00,vanprod,2013-01-15 16:05:00,
2013-01-15 11:15:00,38.3,26.0,30.22,NW,322,0.0,0.0,62,0.00,,,0.00,vanprod,2013-01-15 16:15:00,
2013-01-15 11:25:00,38.8,27.0,30.22,NNE,23,0.0,0.0,61,0.00,,,0.00,vanprod,2013-01-15 16:25:00,
2013-01-15 11:35:00,38.9,27.0,30.21,North,7,1.0,0.0,61,0.00,,,0.00,vanprod,2013-01-15 16:35:00,
2013-01-15 11:45:00,39.1,27.0,30.21,ENE,72,1.0,2.0,61,0.00,,,0.00,vanprod,2013-01-15 16:45:00,
2013-01-15 11:55:00,39.1,26.0,30.21,ENE,71,1.0,0.0,59,0.00,,,0.00,vanprod,2013-01-15 16:55:00,
2013-01-15 12:05:00,39.2,26.0,30.20,NNE,27,1.0,2.0,59,0.00,,,0.00,vanprod,2013-01-15 17:05:00,
2013-01-15 12:15:00,39.2,27.0,30.20,NE,38,2.0,0.0,60,0.00,,,0.00,vanprod,2013-01-15 17:15:00,
2013-01-15 12:25:00,39.3,27.0,30.20,NE,38,0.0,1.0,61,0.00,,,0.00,vanprod,2013-01-15 17:25:00,
2013-01-15 12:35:00,39.2,26.0,30.20,NE,38,1.0,0.0,59,0.00,,,0.00,vanprod,2013-01-15 17:35:00,
2013-01-15 12:45:00,39.2,26.0,30.19,NE,38,1.0,0.0,58,0.00,,,0.00,vanprod,2013-01-15 17:45:00,
2013-01-15 12:55:00,39.3,26.0,30.19,NE,38,0.0,1.0,58,0.00,,,0.00,vanprod,2013-01-15 17:55:00,
2013-01-15 13:05:00,39.5,27.0,30.19,NE,38,0.0,0.0,60,0.00,,,0.00,vanprod,2013-01-15 18:05:00,
2013-01-15 13:15:00,39.5,26.0,30.19,NE,38,0.0,0.0,58,0.00,,,0.00,vanprod,2013-01-15 18:15:00,
2013-01-15 13:25:00,39.5,26.0,30.19,NE,37,0.0,0.0,58,0.00,,,0.00,vanprod,2013-01-15 18:25:00,
2013-01-15 13:35:00,39.5,27.0,30.20,NE,38,0.0,0.0,60,0.00,,,0.00,vanprod,2013-01-15 18:35:00,
2013-01-15 13:45:00,39.6,26.0,30.20,NE,38,0.0,0.0,57,0.00,,,0.00,vanprod,2013-01-15 18:45:00,
2013-01-15 13:55:00,39.8,25.0,30.20,NE,37,0.0,0.0,56,0.00,,,0.00,vanprod,2013-01-15 18:55:00,
2013-01-15 14:05:00,39.9,26.0,30.18,NE,38,0.0,0.0,58,0.00,,,0.00,vanprod,2013-01-15 19:05:00,
2013-01-15 14:15:00,39.9,26.0,30.18,NE,38,0.0,0.0,57,0.00,,,0.00,vanprod,2013-01-15 19:15:00,
2013-01-15 14:25:00,40.1,26.0,30.18,NE,38,0.0,0.0,57,0.00,,,0.00,vanprod,2013-01-15 19:25:00,
2013-01-15 14:35:00,40.1,27.0,30.18,NE,38,0.0,0.0,58,0.00,,,0.00,vanprod,2013-01-15 19:35:00,
2013-01-15 14:45:00,40.1,27.0,30.19,NE,40,0.0,0.0,59,0.00,,,0.00,vanprod,2013-01-15 19:45:00,
2013-01-15 14:55:00,39.9,26.0,30.19,North,10,1.0,1.0,57,0.00,,,0.00,vanprod,2013-01-15 19:55:00,
2013-01-15 15:05:00,39.8,28.0,30.19,WNW,298,0.0,0.0,61,0.00,,,0.00,vanprod,2013-01-15 20:05:00,
2013-01-15 15:15:00,39.6,27.0,30.19,WSW,241,0.0,1.0,61,0.00,,,0.00,vanprod,2013-01-15 20:15:00,
2013-01-15 15:25:00,39.6,27.0,30.19,WSW,241,0.0,0.0,61,0.00,,,0.00,vanprod,2013-01-15 20:25:00,
2013-01-15 15:35:00,39.3,27.0,30.18,West,275,0.0,0.0,60,0.00,,,0.00,vanprod,2013-01-15 20:35:00,
2013-01-15 15:45:00,39.2,26.0,30.16,West,275,0.0,1.0,58,0.00,,,0.00,vanprod,2013-01-15 20:45:00,
2013-01-15 15:55:00,38.9,27.0,30.16,West,275,0.0,0.0,63,0.00,,,0.00,vanprod,2013-01-15 20:55:00,
2013-01-15 16:05:00,38.6,27.0,30.17,West,275,0.0,0.0,62,0.00,,,0.00,vanprod,2013-01-15 21:05:00,
2013-01-15 16:15:00,38.2,26.0,30.17,West,275,0.0,0.0,61,0.00,,,0.00,vanprod,2013-01-15 21:15:00,
2013-01-15 16:25:00,37.8,27.0,30.17,West,275,0.0,0.0,65,0.00,,,0.00,vanprod,2013-01-15 21:25:00,
2013-01-15 16:35:00,37.3,27.0,30.18,WNW,285,0.0,0.0,65,0.00,,,0.00,vanprod,2013-01-15 21:35:00,
2013-01-15 16:45:00,36.9,26.0,30.18,NW,313,0.0,0.0,63,0.00,,,0.00,vanprod,2013-01-15 21:45:00,
2013-01-15 16:55:00,36.5,25.0,30.18,NW,313,0.0,0.0,62,0.00,,,0.00,vanprod,2013-01-15 21:55:00,
2013-01-15 17:05:00,36.0,25.0,30.19,NW,313,0.0,0.0,65,0.00,,,0.00,vanprod,2013-01-15 22:05:00,
2013-01-15 17:15:00,35.6,25.0,30.19,NW,313,0.0,0.0,65,0.00,,,0.00,vanprod,2013-01-15 22:15:00,
2013-01-15 17:25:00,35.2,25.0,30.19,NW,313,0.0,0.0,66,0.00,,,0.00,vanprod,2013-01-15 22:25:00,
2013-01-15 17:35:00,34.9,25.0,30.20,NW,315,0.0,0.0,67,0.00,,,0.00,vanprod,2013-01-15 22:35:00,
2013-01-15 17:45:00,34.6,26.0,30.20,NW,312,0.0,0.0,69,0.00,,,0.00,vanprod,2013-01-15 22:45:00,
2013-01-15 17:55:00,34.4,26.0,30.20,NW,315,0.0,0.0,72,0.00,,,0.00,vanprod,2013-01-15 22:55:00,
2013-01-15 18:05:00,34.1,26.0,30.19,NW,315,0.0,0.0,71,0.00,,,0.00,vanprod,2013-01-15 23:05:00,
2013-01-15 18:15:00,34.1,25.0,30.20,NNW,329,0.0,0.0,70,0.00,,,0.00,vanprod,2013-01-15 23:15:00,
2013-01-15 18:25:00,34.1,26.0,30.20,NNW,329,0.0,0.0,73,0.00,,,0.00,vanprod,2013-01-15 23:25:00,
2013-01-15 18:35:00,33.8,25.0,30.21,NW,322,0.0,0.0,71,0.00,,,0.00,vanprod,2013-01-15 23:35:00,
2013-01-15 18:45:00,33.7,25.0,30.21,NW,320,0.0,0.0,70,0.00,,,0.00,vanprod,2013-01-15 23:45:00,
2013-01-15 18:55:00,33.5,25.0,30.21,NW,315,0.0,0.0,72,0.00,,,0.00,vanprod,2013-01-15 23:55:00,
2013-01-15 19:05:00,33.4,25.0,30.20,NNW,342,0.0,0.0,72,0.00,,,0.00,vanprod,2013-01-16 00:05:00,
2013-01-15 19:15:00,33.1,25.0,30.20,NNW,342,0.0,0.0,72,0.00,,,0.00,vanprod,2013-01-16 00:15:00,
2013-01-15 19:25:00,32.7,24.0,30.20,NNW,342,0.0,0.0,70,0.00,,,0.00,vanprod,2013-01-16 00:25:00,
2013-01-15 19:35:00,32.4,24.0,30.20,NNW,342,0.0,0.0,71,0.00,,,0.00,vanprod,2013-01-16 00:35:00,
2013-01-15 19:45:00,32.1,25.0,30.19,NNW,343,0.0,0.0,75,0.00,,,0.00,vanprod,2013-01-16 00:45:00,
2013-01-15 19:55:00,31.8,25.0,30.19,NNW,342,0.0,0.0,77,0.00,,,0.00,vanprod,2013-01-16 00:55:00,
2013-01-15 20:05:00,31.2,24.0,30.19,NNW,342,0.0,0.0,74,0.00,,,0.00,vanprod,2013-01-16 01:05:00,
2013-01-15 20:15:00,30.9,23.0,30.19,NNW,342,0.0,0.0,71,0.00,,,0.00,vanprod,2013-01-16 01:15:00,
2013-01-15 20:25:00,30.7,24.0,30.19,NNW,342,0.0,0.0,76,0.00,,,0.00,vanprod,2013-01-16 01:25:00,
2013-01-15 20:35:00,30.7,24.0,30.19,NNW,342,0.0,0.0,77,0.00,,,0.00,vanprod,2013-01-16 01:35:00,
2013-01-15 20:45:00,30.6,25.0,30.19,NNW,342,0.0,0.0,78,0.00,,,0.00,vanprod,2013-01-16 01:45:00,
2013-01-15 20:55:00,30.6,25.0,30.19,NNW,342,0.0,0.0,79,0.00,,,0.00,vanprod,2013-01-16 01:55:00,
2013-01-15 21:05:00,30.4,25.0,30.18,NNW,342,0.0,0.0,80,0.00,,,0.00,vanprod,2013-01-16 02:05:00,
2013-01-15 21:15:00,30.3,25.0,30.18,NNW,342,0.0,0.0,79,0.00,,,0.00,vanprod,2013-01-16 02:15:00,
2013-01-15 21:25:00,30.1,25.0,30.18,NNW,342,0.0,0.0,80,0.00,,,0.00,vanprod,2013-01-16 02:25:00,
2013-01-15 21:35:00,30.1,25.0,30.19,NNW,342,0.0,0.0,80,0.00,,,0.00,vanprod,2013-01-16 02:35:00,
2013-01-15 21:45:00,30.1,25.0,30.18,NNW,342,0.0,0.0,80,0.00,,,0.00,vanprod,2013-01-16 02:45:00,
2013-01-15 21:55:00,30.0,25.0,30.18,NNW,342,0.0,0.0,80,0.00,,,0.00,vanprod,2013-01-16 02:55:00,
2013-01-15 22:05:00,30.0,25.0,30.18,NNW,342,0.0,0.0,81,0.00,,,0.00,vanprod,2013-01-16 03:05:00,
2013-01-15 22:15:00,29.8,25.0,30.17,NNW,340,0.0,0.0,81,0.00,,,0.00,vanprod,2013-01-16 03:15:00,
2013-01-15 22:25:00,29.8,25.0,30.17,NNW,342,0.0,0.0,81,0.00,,,0.00,vanprod,2013-01-16 03:25:00,
2013-01-15 22:35:00,29.8,25.0,30.17,NNW,340,0.0,0.0,81,0.00,,,0.00,vanprod,2013-01-16 03:35:00,
2013-01-15 22:45:00,29.8,25.0,30.18,NNW,342,0.0,0.0,82,0.00,,,0.00,vanprod,2013-01-16 03:45:00,
2013-01-15 22:55:00,29.8,25.0,30.18,NNW,342,0.0,0.0,82,0.00,,,0.00,vanprod,2013-01-16 03:55:00,
2013-01-15 23:05:00,29.7,25.0,30.18,NNW,342,0.0,0.0,82,0.00,,,0.00,vanprod,2013-01-16 04:05:00,
2013-01-15 23:15:00,29.8,25.0,30.17,NNW,342,0.0,0.0,82,0.00,,,0.00,vanprod,2013-01-16 04:15:00,
2013-01-15 23:25:00,29.8,25.0,30.17,NNW,342,0.0,0.0,83,0.00,,,0.00,vanprod,2013-01-16 04:25:00,
2013-01-15 23:35:00,29.8,25.0,30.18,NNW,343,0.0,0.0,83,0.00,,,0.00,vanprod,2013-01-16 04:35:00,
2013-01-15 23:45:00,29.8,26.0,30.18,NNW,342,0.0,0.0,84,0.00,,,0.00,vanprod,2013-01-16 04:45:00,
2013-01-15 23:55:00,29.7,25.0,30.18,NNW,342,0.0,0.0,84,0.00,,,0.00,vanprod,2013-01-16 04:55:00,